When you browse on this site, cookies collect data to enhance your experience and personalize the content and advertising you see.
Visit our Privacy Policy to learn more. By continuing to use the site, you agree to this use of cookies and data.
  • En España
  • Lista de países
  • Para 7 días
  • Temperatura del agua
  • Mapa Satelital
  • El tiempo en el mapa
  • Informadores
  • user-avatar
    Iniciar sesión

    Tiempo cada hora Istria

    Hoy, 21 Abril, Domingo

    Tiempo Temperatura Precipitaciones Viento Presión Humedad
    00:00 +13°C° 0 mm 4 mps 759 mmHg 62%
    01:00 +13°C° 0 mm 3 mps 759 mmHg 60%
    02:00 +12°C° 0 mm 3 mps 759 mmHg 59%
    03:00 +12°C° 0 mm 3 mps 759 mmHg 59%
    04:00 +12°C° 0 mm 3 mps 758 mmHg 58%
    05:00 +14°C° 0 mm 2 mps 758 mmHg 58%
    06:00 +14°C° 0 mm 2 mps 758 mmHg 58%
    07:00 +15°C° 0 mm 2 mps 758 mmHg 55%
    08:00 +17°C° 0 mm 2 mps 758 mmHg 50%
    09:00 +18°C° 0 mm 2 mps 757 mmHg 44%
    10:00 +20°C° 0 mm 2 mps 757 mmHg 39%
    11:00 +20°C° 0 mm 3 mps 757 mmHg 36%
    12:00 +20°C° 0 mm 3 mps 757 mmHg 33%
    13:00 +21°C° 0 mm 3 mps 757 mmHg 32%
    14:00 +20°C° 0 mm 3 mps 756 mmHg 34%
    15:00 +20°C° 0 mm 3 mps 756 mmHg 36%
    16:00 +19°C° 0 mm 3 mps 755 mmHg 39%
    17:00 +17°C° 0 mm 3 mps 755 mmHg 48%
    18:00 +14°C° 0 mm 3 mps 755 mmHg 58%
    19:00 +13°C° 0 mm 3 mps 755 mmHg 68%
    20:00 +12°C° 0 mm 3 mps 755 mmHg 70%
    21:00 +12°C° 0 mm 3 mps 755 mmHg 72%
    22:00 +12°C° 0 mm 4 mps 755 mmHg 75%
    23:00 +12°C° 0 mm 4 mps 755 mmHg 76%

    Mañana, 22 Abril, Lunes

    Tiempo Temperatura Precipitaciones Viento Presión Humedad
    00:00 +11°C° 0 mm 4 mps 755 mmHg 77%
    01:00 +11°C° 0 mm 4 mps 755 mmHg 78%
    02:00 +11°C° 0 mm 4 mps 755 mmHg 81%
    03:00 +11°C° 0 mm 4 mps 754 mmHg 83%
    04:00 +11°C° 0 mm 4 mps 754 mmHg 86%
    05:00 +12°C° 0 mm 5 mps 753 mmHg 83%
    06:00 +13°C° 0 mm 5 mps 753 mmHg 80%
    07:00 +13°C° 0 mm 5 mps 753 mmHg 77%
    08:00 +14°C° 0 mm 6 mps 752 mmHg 74%
    09:00 +15°C° 0 mm 6 mps 752 mmHg 70%
    10:00 +16°C° 0 mm 6 mps 751 mmHg 67%
    11:00 +16°C° 0 mm 6 mps 751 mmHg 65%
    12:00 +17°C° 0 mm 6 mps 751 mmHg 63%
    13:00 +17°C° 0 mm 6 mps 750 mmHg 60%
    14:00 +17°C° 0 mm 6 mps 750 mmHg 62%
    15:00 +17°C° 0 mm 6 mps 749 mmHg 64%
    16:00 +16°C° 0 mm 6 mps 748 mmHg 67%
    17:00 +15°C° 0 mm 6 mps 748 mmHg 71%
    18:00 +15°C° 0 mm 6 mps 748 mmHg 75%
    19:00 +14°C° 0 mm 6 mps 748 mmHg 80%
    20:00 +14°C° 0.1 mm 6 mps 748 mmHg 79%
    21:00 +14°C° 0.1 mm 6 mps 748 mmHg 78%
    22:00 +14°C° 0.1 mm 7 mps 747 mmHg 77%
    23:00 +13°C° 2.9 mm 8 mps 747 mmHg 82%

    Pasado mañana, 23 Abril, Martes

    Tiempo Temperatura Precipitaciones Viento Presión Humedad
    00:00 +12°C° 2.9 mm 9 mps 747 mmHg 88%
    01:00 +12°C° 2.9 mm 10 mps 746 mmHg 93%
    02:00 +12°C° 2.6 mm 10 mps 746 mmHg 93%
    03:00 +12°C° 2.6 mm 10 mps 745 mmHg 93%
    04:00 +12°C° 2.6 mm 10 mps 745 mmHg 93%
    05:00 +12°C° 0.4 mm 10 mps 745 mmHg 92%
    06:00 +12°C° 0.4 mm 11 mps 745 mmHg 91%
    07:00 +13°C° 0.4 mm 11 mps 745 mmHg 91%
    08:00 +13°C° 0.1 mm 10 mps 745 mmHg 91%
    09:00 +13°C° 0.1 mm 10 mps 745 mmHg 90%
    10:00 +13°C° 0.1 mm 9 mps 745 mmHg 90%
    11:00 +15°C° 0.2 mm 9 mps 745 mmHg 90%
    12:00 +15°C° 0.2 mm 9 mps 745 mmHg 89%
    13:00 +16°C° 0.2 mm 9 mps 745 mmHg 88%
    14:00 +15°C° 0.3 mm 9 mps 745 mmHg 89%
    15:00 +15°C° 0.3 mm 9 mps 745 mmHg 90%
    16:00 +15°C° 0.3 mm 8 mps 745 mmHg 90%
    17:00 +15°C° 0.5 mm 7 mps 745 mmHg 92%
    18:00 +15°C° 0.5 mm 6 mps 746 mmHg 95%
    19:00 +14°C° 0.5 mm 5 mps 746 mmHg 97%
    20:00 +14°C° 0.8 mm 4 mps 747 mmHg 96%
    21:00 +14°C° 0.8 mm 4 mps 747 mmHg 94%
    22:00 +14°C° 0.8 mm 4 mps 748 mmHg 93%
    23:00 +14°C° 0.4 mm 4 mps 748 mmHg 93%

    24 Abril, Miércoles

    Tiempo Temperatura Precipitaciones Viento Presión Humedad
    00:00 +14°C° 0.4 mm 4 mps 749 mmHg 93%
    01:00 +14°C° 0.4 mm 4 mps 749 mmHg 93%
    02:00 +14°C° 0.3 mm 4 mps 750 mmHg 94%
    03:00 +14°C° 0.3 mm 4 mps 750 mmHg 94%
    04:00 +13°C° 0.3 mm 4 mps 750 mmHg 95%
    05:00 +14°C° 0.1 mm 4 mps 751 mmHg 94%
    06:00 +14°C° 0.1 mm 4 mps 751 mmHg 93%
    07:00 +14°C° 0.1 mm 4 mps 752 mmHg 92%
    08:00 +15°C° 0.2 mm 5 mps 752 mmHg 92%
    09:00 +15°C° 0.2 mm 5 mps 753 mmHg 91%
    10:00 +15°C° 0.2 mm 6 mps 753 mmHg 91%
    11:00 +16°C° 0.3 mm 6 mps 754 mmHg 90%
    12:00 +17°C° 0.3 mm 6 mps 754 mmHg 88%
    13:00 +17°C° 0.3 mm 6 mps 754 mmHg 87%
    14:00 +17°C° 0.1 mm 6 mps 754 mmHg 88%
    15:00 +17°C° 0.1 mm 6 mps 754 mmHg 88%
    16:00 +16°C° 0.1 mm 6 mps 753 mmHg 89%
    17:00 +16°C° 0 mm 5 mps 754 mmHg 92%
    18:00 +15°C° 0 mm 5 mps 754 mmHg 94%
    19:00 +14°C° 0 mm 4 mps 754 mmHg 96%
    20:00 +14°C° 0 mm 4 mps 754 mmHg 96%
    21:00 +14°C° 0 mm 4 mps 754 mmHg 96%
    22:00 +13°C° 0 mm 4 mps 755 mmHg 96%
    23:00 +13°C° 0 mm 4 mps 755 mmHg 95%

    25 Abril, Jueves

    Tiempo Temperatura Precipitaciones Viento Presión Humedad
    00:00 +13°C° 0 mm 4 mps 755 mmHg 94%
    01:00 +13°C° 0 mm 5 mps 754 mmHg 93%
    02:00 +13°C° 0.2 mm 5 mps 754 mmHg 93%
    03:00 +13°C° 0.2 mm 5 mps 754 mmHg 93%
    04:00 +13°C° 0.2 mm 5 mps 754 mmHg 93%
    05:00 +14°C° 0 mm 6 mps 754 mmHg 92%
    06:00 +14°C° 0 mm 6 mps 754 mmHg 91%
    07:00 +15°C° 0 mm 6 mps 754 mmHg 90%
    08:00 +16°C° 0 mm 6 mps 754 mmHg 89%
    09:00 +16°C° 0 mm 6 mps 755 mmHg 87%
    10:00 +16°C° 0 mm 7 mps 755 mmHg 85%
    11:00 +17°C° 0 mm 6 mps 755 mmHg 81%
    12:00 +19°C° 0 mm 6 mps 755 mmHg 76%
    13:00 +20°C° 0 mm 5 mps 755 mmHg 71%
    14:00 +20°C° 0 mm 5 mps 754 mmHg 71%
    15:00 +20°C° 0 mm 5 mps 754 mmHg 71%
    16:00 +19°C° 0 mm 4 mps 754 mmHg 71%
    17:00 +18°C° 0 mm 4 mps 754 mmHg 77%
    18:00 +17°C° 0 mm 3 mps 754 mmHg 83%
    19:00 +16°C° 0 mm 3 mps 754 mmHg 90%
    20:00 +14°C° 0 mm 3 mps 754 mmHg 91%
    21:00 +14°C° 0 mm 3 mps 754 mmHg 93%
    22:00 +14°C° 0 mm 4 mps 754 mmHg 94%
    23:00 +14°C° 0 mm 3 mps 754 mmHg 94%

    26 Abril, Viernes

    Tiempo Temperatura Precipitaciones Viento Presión Humedad
    00:00 +14°C° 0 mm 3 mps 754 mmHg 95%
    01:00 +14°C° 0 mm 3 mps 754 mmHg 95%
    02:00 +14°C° 0 mm 3 mps 753 mmHg 95%
    03:00 +14°C° 0 mm 3 mps 753 mmHg 95%
    04:00 +14°C° 0 mm 3 mps 753 mmHg 96%
    05:00 +14°C° 0.1 mm 4 mps 753 mmHg 96%
    06:00 +14°C° 0.1 mm 4 mps 753 mmHg 97%
    07:00 +15°C° 0.1 mm 5 mps 753 mmHg 97%
    08:00 +15°C° 0.1 mm 4 mps 753 mmHg 96%
    09:00 +15°C° 0.1 mm 4 mps 753 mmHg 94%
    10:00 +17°C° 0.1 mm 4 mps 753 mmHg 93%
    11:00 +18°C° 0 mm 4 mps 752 mmHg 80%
    12:00 +19°C° 0 mm 3 mps 752 mmHg 68%
    13:00 +20°C° 0 mm 3 mps 752 mmHg 56%
    14:00 +19°C° 0 mm 3 mps 752 mmHg 59%
    15:00 +19°C° 0 mm 3 mps 751 mmHg 62%
    16:00 +19°C° 0 mm 4 mps 751 mmHg 66%
    17:00 +17°C° 0.1 mm 3 mps 751 mmHg 72%
    18:00 +16°C° 0.1 mm 3 mps 751 mmHg 79%
    19:00 +13°C° 0.1 mm 3 mps 751 mmHg 85%
    20:00 +13°C° 0 mm 3 mps 752 mmHg 85%
    21:00 +13°C° 0 mm 3 mps 752 mmHg 84%
    22:00 +13°C° 0 mm 4 mps 752 mmHg 84%
    23:00 +12°C° 0.1 mm 3 mps 753 mmHg 84%
    Mostrar más